Location: Marysville Observatory
(48.1092°N, 122.1645°W)
Time: 21:26:55
(UTC-07:00)

ISS - Visible Passes

Search period start: 22 October 2014 00:00
Search period end: 01 November 2014 00:00
Orbit: 413 x 416 km, 51.6° (Epoch: 22 October)

Date Brightness Start Highest point End Pass type
(mag) Time Alt. Az. Time Alt. Az. Time Alt. Az.
22 Oct -2.9 19:46:32 10° WNW 19:49:50 59° SSW 19:50:43 41° SSE visible
23 Oct -3.3 18:57:24 10° WNW 19:00:45 85° SSW 19:03:48 12° ESE visible
23 Oct -0.7 20:34:43 10° W 20:36:40 18° SW 20:36:40 18° SW visible
24 Oct -1.4 19:45:11 10° W 19:48:06 27° SW 19:49:51 18° S visible
25 Oct -2.1 18:55:50 10° WNW 18:59:01 42° SSW 19:02:12 10° SE visible
26 Oct -0.3 19:44:29 10° WSW 19:46:01 13° SW 19:47:34 10° SSW visible
27 Oct -0.6 18:54:27 10° W 18:56:58 20° SW 18:59:29 10° S visible
